Вернуться в каталог

NOAA 16

АктивенПогодаSSO
NORAD 26536·PAYLOAD·🇺🇸 United States

Запущен Sep 21, 2000 с Vandenberg Space Force Base

Loading…

Ближайшие Пролёты (ближайшие 24 часа)

TLE

СвежийSource: Space-Track

Эпоха: Sep 14, 2026, 12:59 UTC

1 26536U 00055A   26257.54146055  .00000025  00000-0  34539-4 0  9999
2 26536  98.4645 267.1122 0011361  49.1338 311.0818 14.13936317636354

Отслеживайте NOAA 16 в реальном времени с AllMySat

Download on the App Store